COSMOS 1275 DEB

Satellite information

Favourite Embed

Satellite Type and Status

DEBRISIN ORBIT

Key statistics

Satellite COSMOS 1275 DEB at a glance.

Uptime

16102

Days in orbit

Revolutions

≈ 14.1

Per day

Orbit

LEO

Low Earth Orbit

Inclination

83.0

Latest

Satellite identification and parameters

Extended collection of information and parameters for COSMOS 1275 DEB.

Object identification

Identified? True

Debris? True

Object name: COSMOS 1275 DEB

International designator: 1981-053J

Object number (NORAD): 12654

Object ID (CCSDS): 12654

Country: COMMONWEALTH OF INDEPENDENT STATES (CIS)

Current information (Y/N): Y

RCS size: MEDIUM

Orbital parameters

Period: 102.26 minutes

Inclination: 82.9809 deg

SMA: 7243.781 km

Apoapsis: 893.373 km

Periapsis: 837.919 km

RAAN: 130.7299 deg

Eccentricy: 0.0038277

Argument of periapsis: 192.801 deg

Mean anomaly: 231.1619 deg

Mean motion: 14.08169014 rev/day

Mean motion (dot): 0.00000982 rev/day2

B* drag term: 0.00056257 1/REarth

Two-line elements (TLE)

Creation date: July 4, 2025, 10:26 p.m.

Reference frame: TEME

Reference center: EARTH

Epoch: July 4, 2025, 8:28 p.m. UTC

TLE line 0: 0 COSMOS 1275 DEB

TLE line 1: 1 12654U 81053J 25185.85314473 .00000982 00000-0 56257-3 0 9998

TLE line 2: 2 12654 82.9809 130.7299 0038277 192.8010 231.1619 14.08169014239501

Live tracking on map

Real-time ground track for satellite COSMOS 1275 DEB.

In-orbit conjunctions

A list of the most updated potential collisions computed for object COSMOS 1275 DEB.

Target Orbit TCA Probability of collision Miss distance Type
FENGYUN 1C DEB SSO 2025-05-07 18:30:40 0.0001429785 201.0 (m) DEBRIS
FENGYUN 1C DEB SSO 2025-01-18 05:58:13 0.0001689393 160.0 (m) DEBRIS
METEOR 1-17 DEB LEO 2024-11-09 17:10:42 0.0002976083 398.0 (m) DEBRIS
CZ-6A DEB SSO 2024-09-19 18:50:13 0.0001570365 140.0 (m) DEBRIS

Associated space launch

Navigation satellite providing location information for the Tsiklon-B navigation system

COSMOS 1275 DEB was lifted into orbit during the mission ‘Kosmos-3M | Parus 27’, on board a Kosmos-3M space rocket.

The launch took place on June 4, 1981, 3:41 p.m. from 132/2.

For more information about the launch, click the button.

Launch to space Kosmos-3M | Parus 27
Kosmos-3M | Parus 27

Agency: N/A

Status: Launch Successful

Launch date: June 4, 1981, 3:41 p.m. UTC

Rocket: Kosmos-3M

Launch pad: 132/2

Location: Plesetsk Cosmodrome, Russian Federation

...

Latest news about this satellite

There are no fresh news available about this satellite. Check back as we update our databases every day.


Newsletter sign-up

Weekly statistics, charts and insights to help you stay on top of the space industry.